www.pogodaiklimat.ru
ПОГОДА в Сандакане
Время
(UTC), дата
15 8.12
18 8.12
21 8.12
00 9.12
03 9.12
06 9.12
09 9.12
12 9.12
15 9.12
18 9.12
21 9.12
00 10.12
03 10.12
06 10.12
09 10.12
12 10.12
15 10.12
18 10.12
21 10.12
00 11.12
03 11.12
06 11.12
09 11.12
12 11.12
15 11.12
18 11.12
21 11.12
00 12.12
03 12.12
06 12.12
09 12.12
12 12.12
15 12.12
18 12.12
21 12.12
00 13.12
03 13.12
06 13.12
09 13.12
12 13.12
15 13.12
18 13.12
21 13.12
00 14.12
03 14.12
06 14.12
09 14.12
12 14.12
15 14.12
18 14.12
21 14.12
00 15.12
03 15.12
06 15.12
09 15.12
12 15.12
Ветер
(напр.,м/с)
Видим. Явления Облачность Т
(С)
Тd
(С)
f
(%)
Тe
(С)
Тes
(С)
Комфортность P
(гПа)
Po
(гПа)
Тmin
(С)
Tmax
(С)
R
(мм)
R24
(мм)
S
(см)
штиль 0 5000 м гроза без осадков 9/5 450 м
[Cb cap Ac lent Ci sp]
+24.3 +23.9 98 +33 +33 очень
душно
1011.7 1010.5
З 2 7000 м в посл. час гроза 9/4 450 м
[Cu Sc Ac lent Ci sp]
+24.4 +23.7 96 +33 +33 очень
душно
1010.4 1009.2
З 2 7000 м дымка {гроза} 9/4 450 м
[Cu Sc Ac lent Ci sp]
+24.4 +23.9 97 +33 +33 очень
душно
1010.3 1009.1
З 1 11 км осадки на расстоянии {гроза} 9/5 1200 м
[Cb cap Ac lent Cs]
+25.7 +24.5 93 +36 +37 очень
душно
1012.0 1010.8 +23.6 29 28.6
СВ 5 12 км мгла 9/5 450 м
[Cu Sc Ac trans Cs]
+28.5 +25.3 83 +42 +44 опасность
перегрева
1011.7 1010.5
С 3 14 км 9/4 450 м
[Cu Sc Ac trans Ci sp]
+28.8 +23.7 74 +39 +44 очень
душно
1008.8 1007.6
С 4 14 км 9/4 450 м
[Cu Sc Ac trans Cs]
+28.0 +24.8 83 +40 +40 очень
душно
1008.3 1007.1
С 5 3000 м слаб. ливневой дождь 9/5 420 м
[Cb cap Ac trans Cs]
+25.9 +24.2 90 +36 +36 очень
душно
1011.0 1009.8 +29.3 0.0
З 2 11 км дымка {ливн. осадки} 10/4 450 м
[Cu Sc Ac trans Cs]
+25.3 +24.9 98 +36 +36 очень
душно
1011.3 1010.1
З 2 9000 м слаб. ливневой дождь, в посл. час гроза 10/5 270 м
[Frnb Ac lent Cs]
+24.3 +24.0 98 +33 +33 очень
душно
1009.9 1008.7 11
СЗ 1 11 км дымка 9/4 450 м
[Cu Sc Ac trans Cs]
+24.4 +23.9 97 +33 +33 очень
душно
1009.8 1008.6
СЗ 2 9000 м слаб. ливневой дождь, в посл. час гроза 9/5 1200 м
[Cb cap Ac trans Cs]
+24.4 +23.5 95 +33 +34 очень
душно
1011.4 1010.2 +24.4 12 12.4
З 2 8000 м слаб. ливневой дождь, в посл. час гроза 10/5 210 м
[Cu Sc Ac trans Cs]
+24.6 +24.2 98 +34 +38 очень
душно
1011.6 1010.4
З 2 3000 м дождь 10/5 180 м
[Cu Sc Ac trans Cs]
+25.2 +24.4 95 +35 +39 очень
душно
1009.1 1007.9 6
штиль 0 8000 м слаб. дождь 10/5 240 м
[Frnb As op]
+25.6 +24.8 95 +36 +36 очень
душно
1008.4 1007.2
штиль 0 12 км 9/4 450 м
[Cu Sc Ac trans Cs]
+24.7 +24.2 97 +34 +34 очень
душно
1010.2 1009.0 +24.8 0.4
штиль 0 13 км 9/3 480 м
[Cu Sc Ac trans Ci sp]
+24.1 +23.7 98 +33 +33 очень
душно
1010.4 1009.2
З 1 13 км в посл. час дождь 9/3 480 м
[Cu Sc Ac trans Ci sp]
+24.3 +23.8 97 +33 +33 очень
душно
1008.9 1007.7
штиль 0 7000 м дымка 9/1 480 м
[Cu Sc Ac trans Ci sp]
+23.5 +23.1 98 +31 +31 очень
душно
1008.8 1007.6
З 2 9000 м гроза без осадков 9/4 1500 м
[Cb cap Ac lent Cs]
+25.3 +24.0 93 +35 +36 очень
душно
1010.8 1009.6 +23.9 6 6.4
С 3 13 км 9/6 480 м
[Cu Sc Ac lent Ci sp]
+28.6 +25.1 81 +41 +44 опасность
перегрева
1010.6 1009.4
С 3 13 км 9/5 480 м
[Cu Sc Ac lent Ci sp]
+28.3 +25.0 82 +41 +44 опасность
перегрева
1008.3 1007.1
С 2 15 км 9/4 450 м
[Cu Sc Ac lent Ci sp]
+27.4 +24.5 84 +39 +39 очень
душно
1007.4 1006.2
штиль 0 14 км зарница 9/4 480 м
[Cb cap Ac lent Cs]
+26.1 +24.7 92 +37 +37 очень
душно
1009.4 1008.2 +26.3
СВ 1 12 км в посл. час дождь 9/4 450 м
[Cu Sc Ac lent Ci sp]
+25.4 +24.4 94 +35 +35 очень
душно
1010.4 1009.2
З 2 4000 м сильн. дождь 10/5 210 м
[Frnb Ac lent Cs]
+24.8 +24.4 98 +35 +35 очень
душно
1009.2 1008.0 8
СЗ 1 7000 м слаб. дождь 10/4 210 м
[Frnb Ac lent Ci sp]
+25.4 +24.8 96 +36 +36 очень
душно
1008.8 1007.6
СЗ 3 14 км в посл. час гроза {дождь} 9/5 300 м
[Cb cap Ac lent Cs]
+25.5 +23.7 90 +35 +36 очень
душно
1009.8 1008.6 +24.1
С 3 11 км осадки на расстоянии 9/5 300 м
[Cb cap Ac lent Cs]
+27.6 +25.0 86 +40 +44 очень
душно
1010.8 1009.6
С 3 11 км в посл. час дождь 10/6 270 м
[Cu Sc As trans Cs]
+27.5 +24.4 83 +39 +41 очень
душно
1008.8 1007.6
С 2 11 км слаб. дождь 10/8 240 м
[Frnb As trans Cs]
+25.8 +24.5 93 +36 +36 очень
душно
1009.1 1007.9
СВ 5 14 км в посл. час гроза {дождь} 9/5 270 м
[Frnb Ac lent Cs]
+26.5 +24.6 89 +37 +37 очень
душно
1011.0 1009.8 +26.5 14
З 2 8000 м гроза, ливневой дождь 10/6 240 м
[Cb cap Ac lent Cs]
+25.5 +24.9 96 +36 +36 очень
душно
1011.8 1010.6
штиль 0 8000 м дымка {гроза, дождь} 9/4 450 м
[Cu Sc Ac lent Cs]
+24.6 +24.3 98 +34 +34 очень
душно
1010.4 1009.2 21
ЮЗ 1 4000 м дождь 10/6 240 м
[Cu Sc Ac lent Cs]
+24.3 +24.2 99 +33 +33 очень
душно
1010.3 1009.1
З 3 6000 м слаб. ливневой дождь 9/5 1500 м
[Frnb Ac lent Cs]
+25.2 +24.7 97 +35 +36 очень
душно
1012.1 1010.9 +24.0 45 44.6
СВ 3 12 км мгла 9/5 450 м
[Cu Sc Ac trans Ci sp]
+29.1 +25.5 81 +43 +47 опасность
перегрева
1012.1 1010.9
С 4 12 км мгла 9/4 450 м
[Cu Sc Ac trans Ci sp]
+29.5 +25.3 78 +43 +46 опасность
перегрева
1009.8 1008.6 0.0
СВ 3 13 км мгла 9/3 480 м
[Cb cap Ac trans Cs]
+28.1 +24.9 83 +40 +41 очень
душно
1009.5 1008.3
СВ 3 14 км 9/4 450 м
[Cu Sc Ac trans Cs]
+27.6 +25.0 86 +40 +40 очень
душно
1011.5 1010.3 +29.9
штиль 0 14 км 9/4 450 м
[Cu Sc Ac trans Ci sp]
+26.5 +25.2 93 +38 +38 очень
душно
1012.4 1011.2
СЗ 2 6000 м гроза, ливневой дождь 9/5 270 м
[Cb cap Ac lent Cs]
+24.1 +23.7 98 +33 +33 очень
душно
1011.1 1009.9 31
СЗ 1 10 км гроза без осадков 9/5 450 м
[Cb cap Ac trans Ci sp]
+24.2 +24.1 99 +33 +33 очень
душно
1011.2 1010.0
штиль 0 12 км мгла 9/3 <50 м
[Cu Sc Ac trans Ci sp]
+26.5 +25.2 93 +38 +40 очень
душно
1012.2 1011.0 +23.8 31 31.4
СВ 3 10 км осадки на расстоянии 9/4 480 м
[Cb cap Ac trans Ci sp]
+29.6 +25.5 79 +44 +49 опасность
перегрева
1011.9 1010.7
СВ 5 13 км 9/3 480 м
[Cu Sc Ac trans Ci sp]
+29.7 +25.6 79 +44 +47 опасность
перегрева
1009.8 1008.6 0.4
СВ 5 13 км 9/4 450 м
[Cu Sc Ac trans Ci sp]
+28.4 +25.2 83 +41 +42 опасность
перегрева
1008.9 1007.7
СВ 5 13 км 9/3 450 м
[Cu Sc Ac trans Ci sp]
+27.8 +25.0 85 +40 +40 очень
душно
1010.4 1009.2 +30.1
СВ 4 13 км 9/4 450 м
[Cu Sc Ac trans Ci sp]
+27.8 +25.2 86 +40 +40 очень
душно
1011.0 1009.8
СВ 5 13 км зарница 9/3 450 м
[Cb cap Ac trans Cs]
+27.6 +25.4 88 +40 +40 очень
душно
1009.2 1008.0
С 3 6000 м слаб. ливневой дождь 9/5 420 м
[Cb cap Ac trans Cs]
+27.2 +25.5 90 +40 +40 очень
душно
1008.5 1007.3
Ю 1 9000 м в посл. час гроза {дождь} 10/8 480 м
[Cb cap Ac lent Cs]
+25.3 +24.4 95 +35 +36 очень
душно
1011.7 1010.5 +24.8 20 20.4
штиль 0 9000 м слаб. дождь 9/8 300 м
[Cb cap Ac lent Cs]
+27.2 +25.5 90 +40 +43 очень
душно
1011.1 1009.9
С 4 13 км в посл. час дождь 9/6 450 м
[Cu Sc Ac lent Cs]
+28.6 +25.1 81 +41 +44 опасность
перегрева
1008.5 1007.3 6
СВ 3 н/о 9/4 480 м
[Cu Sc Ac lent Ci sp]
+27.3 +25.1 88 +39 +40 очень
душно
1008.4 1007.2
СВ 5 н/о слаб. дождь 9/4 400 м
[Cu Sc Ac lent Ci sp]
+26.5 +25.5 94 +39 +39 очень
душно
1009.8 1008.6 +28.9 0.4
Местоположение метеостанции Сандакан (Малайзия): широта 5.90 долгота 118.06 высота над уровнем моря 13 м.
В архиве по умолчанию представлена погода в Сандакане за последнюю неделю. Архивные данные за месяц целиком и за предыдущие месяцы, начиная с января 2011 года, Вы можете получить, выбрав интересующий диапазон дат из раскрывающегося списка и нажав кнопку "Найти!".
*Определитесь, кто Вы:
Внимание! Время в таблицах - всемирное. Для получения местного времени необходимо прибавить поправку, которая равна 8 ч.
Смотрите также архив погоды в соседних городах и на ближайших метеорологических станциях:
Партнеры нашего сайта:      
Пояснения к столбцам:
  • Ветер - указаны скорость ветра в м/с - средняя за 10 мин, порывы в срок и между сроками (в фигурных скобках) и направление, откуда дует ветер: С - северный,
  • СВ - северо-восточный, В - восточный, ЮВ - юго-восточный, Ю - южный, ЮЗ - юго-западный, З - западный, СЗ - северо-западный.
  • Видимость - горизонтальная дальность видимости в метрах или километрах. При видимости от 1 до 10 км при отсутствии осадков обычно наблюдается дымка, при ухудшении видимости до 1 км и менее - туман. В сухую погоду видимость может ухудшаться дымом, пылью или мглою.
  • Явления - указаны атмосферные явления, наблюдавшиеся в срок или в последний час перед сроком; фигурными скобками обозначены явления, наблюдавшиеся между сроками (за 1-3 часа до срока); квадратными скобками обозначены град или гололедные отложения с указанием их диаметра в мм.
  • Облачность - указаны через наклонную черту общая и нижняя облачность в баллах и высота нижней границы облаков в метрах; квадратными скобками обозначены формы облаков: Ci - перистые, Cs - перисто-слоистые, Cc - перисто-кучевые, Ac - высококучевые, As - высокослоистые, Sc - слоисто-кучевые, Ns - слоисто-дождевые, Cu - кучевые, Cb - кучево-дождевые. Подробнее классификацию облаков см. в Атласе облаков (PDF).
  • T - Температура воздуха - температура, измеренная на высоте 2 м над землей.
  • Td - Температура точки росы - температура, при понижении до которой содержащийся в воздухе водяной пар достигнет насыщения.
  • f - Относительная влажность воздуха - влажноcть воздуха, измеренная на высоте 2 м над землей.
  • Te - Эффективная температура - температура, которую ощущает одетый по сезону человек в тени. Характеристика душности погоды. При расчете учитывается влияние влажности воздуха и скорости ветра на теплоощущения человека.
  • Tes - Эффективная температура на солнце - температура, которую ощущает человек, с поправкой на солнечный нагрев. Характеристика знойности погоды. Зависит от высоты солнца над горизонтом, облачности и скорости ветра. Ночью, в пасмурную погоду, а также при ветре 12 м/с и более поправка равна нулю.
  • P - Атмосферное давление - приведенное к уровню моря атмосферное давление.
  • Po - Атмосферное давление - измеренное на уровне метеостанции атмосферное давление.
  • Tmin - Минимальная температура - минимум температуры воздуха на высоте 2 м над землей.
  • Tmax - Максимальная температура - максимум температуры воздуха на высоте 2 м над землей.
  • R - Количество осадков - Количество выпавших осадков за период времени, мм. При наведении курсора мыши на число - период времени, за который выпало указанное количество осадков.
  • R24 - Количество осадков - Количество выпавших осадков за 24 часа, мм.
  • S - Снежный покров - Высота снежного покрова, см. При наведении курсора мыши на число - состояние снежного покрова и степень покрытия местности в баллах.